CW5102 Weather Reports


Display with metric or nautical units.
time (UTC)temp
F
wind
direction
speed
MPH
gust
MPH
rain 1hr
in
rain 24hr
in
rain mn
in
humidity
%
barometer
mb
20260509143703 53 30 1.0 20.0 0.00 0.00 0.00 50 1006.1
20260509142203 52 38 3.0 18.0 0.00 0.00 0.00 53 1006.0
20260509141703 52 59 6.0 18.0 0.00 0.00 0.00 53 1005.9
20260509140203 53 84 3.0 14.0 0.00 0.00 0.00 56 1005.6
20260509135703 52 60 3.0 13.0 0.00 0.00 0.00 59 1005.6
20260509135204 52 62 3.0 9.0 0.00 0.00 0.00 60 1005.6
20260509134204 52 12 2.0 12.0 0.00 0.00 0.00 61 1005.4
20260509133704 52 58 2.0 12.0 0.00 0.00 0.00 62 1005.4
20260509132703 52 21 3.0 9.0 0.00 0.00 0.00 64 1005.2
20260509132204 51 31 2.0 13.0 0.00 0.00 0.00 66 1005.1
20260509131703 51 23 2.0 13.0 0.00 0.00 0.00 66 1005.0
20260509130204 51 37 2.0 15.0 0.00 0.00 0.00 66 1004.8
20260509125704 51 22 7.0 15.0 0.00 0.00 0.00 65 1004.6
20260509125204 51 3 4.0 13.0 0.00 0.00 0.00 65 1004.5
20260509124204 52 35 1.0 10.0 0.00 0.00 0.00 66 1004.4
20260509123703 51 46 1.0 16.0 0.00 0.00 0.00 67 1004.3
20260509122703 52 59 3.0 20.0 0.00 0.00 0.00 68 1004.2
20260509122203 52 34 3.0 20.0 0.00 0.00 0.00 67 1004.1
20260509121704 52 18 6.0 16.0 0.00 0.00 0.00 66 1003.9
20260509121203 52 16 6.0 16.0 0.00 0.00 0.00 67 1003.9
20260509120703 52 20 6.0 14.0 0.00 0.00 0.00 67 1003.8
20260509120204 52 34 3.0 14.0 0.00 0.00 0.00 68 1003.7
20260509115704 52 6 5.0 14.0 0.00 0.00 0.00 67 1003.6
20260509114704 52 12 5.0 9.0 0.00 0.00 0.00 67 1003.5
20260509114203 52 20 1.0 12.0 0.00 0.00 0.00 67 1003.4
20260509113703 52 5 2.0 15.0 0.00 0.00 0.00 67 1003.3
20260509113204 52 23 2.0 15.0 0.00 0.00 0.00 67 1003.0
20260509112704 52 333 2.0 15.0 0.00 0.00 0.00 67 1003.0
20260509112204 52 353 1.0 12.0 0.00 0.00 0.00 66 1002.9
20260509111704 52 0 0.0 2.0 0.00 0.00 0.00 65 1002.8
20260509111203 52 0 0.0 2.0 0.00 0.00 0.00 65 1002.7
20260509110704 52 0 0.0 2.0 0.00 0.00 0.00 64 1002.6
20260509110203 52 0 0.0 1.0 0.00 0.00 0.00 64 1002.4
20260509105703 52 0 0.0 1.0 0.00 0.00 0.00 63 1002.4
20260509105204 52 0 0.0 0.0 0.00 0.00 0.00 63 1002.3
20260509104704 52 0 0.0 0.0 0.00 0.00 0.00 63 1002.2
20260509104204 52 0 0.0 0.0 0.00 0.00 0.00 63 1002.2
20260509103204 53 0 0.0 3.0 0.00 0.00 0.00 62 1002.3
20260509102704 53 0 0.0 7.0 0.00 0.00 0.00 60 1002.2
20260509101204 53 49 0.0 6.0 0.00 0.00 0.00 58 1002.2
20260509100703 53 35 0.0 0.0 0.00 0.00 0.00 57 1002.0
20260509100203 53 35 0.0 0.0 0.00 0.00 0.00 56 1001.7
20260509095704 53 35 0.0 5.0 0.00 0.00 0.00 55 1001.8
20260509095203 53 37 0.0 6.0 0.00 0.00 0.00 55 1002.1
20260509094703 53 52 1.0 6.0 0.00 0.00 0.00 54 1002.3
20260509093704 53 8 0.0 3.0 0.00 0.00 0.00 54 1002.6
20260509093203 53 69 0.0 3.0 0.00 0.00 0.00 53 1002.5
20260509092703 53 69 0.0 6.0 0.00 0.00 0.00 53 1002.3
20260509091703 53 0 1.0 10.0 0.00 0.00 0.00 51 1002.6
20260509091204 53 11 1.0 9.0 0.00 0.00 0.00 50 1002.6
20260509090204 53 19 1.0 6.0 0.00 0.00 0.00 47 1002.3
20260509085704 53 2 1.0 5.0 0.00 0.00 0.00 47 1002.3
20260509085204 53 53 1.0 6.0 0.00 0.00 0.00 46 1002.2
20260509084203 53 7 1.0 6.0 0.00 0.00 0.00 44 1002.2
20260509083703 53 12 3.0 8.0 0.00 0.00 0.00 44 1002.1
20260509083204 53 6 1.0 8.0 0.00 0.00 0.00 44 1002.2
20260509082703 53 21 0.0 12.0 0.00 0.00 0.00 44 1002.1
20260509082204 53 5 2.0 12.0 0.00 0.00 0.00 44 1002.2
20260509081703 53 356 0.0 7.0 0.00 0.00 0.00 45 1002.0
20260509081203 53 0 1.0 12.0 0.00 0.00 0.00 45 1002.0
20260509080702 53 18 3.0 12.0 0.00 0.00 0.00 45 1002.1
20260509080202 53 12 3.0 10.0 0.00 0.00 0.00 42 1002.1
20260509075702 53 6 0.0 3.0 0.00 0.00 0.00 42 1001.3
20260509075203 53 6 0.0 3.0 0.00 0.00 0.00 42 1001.2
20260509074702 53 6 0.0 1.0 0.00 0.00 0.00 41 1001.2
20260509074202 53 6 0.0 0.0 0.00 0.00 0.00 40 1001.1
20260509073702 53 6 0.0 0.0 0.00 0.00 0.00 40 1001.1
20260509073202 53 6 0.0 0.0 0.00 0.00 0.00 40 1001.0
20260509072702 53 6 0.0 1.0 0.00 0.00 0.00 40 1001.0
20260509072203 53 6 0.0 1.0 0.00 0.00 0.00 40 1001.1
20260509071202 54 6 0.0 0.0 0.00 0.00 0.00 39 1001.3
20260509070702 54 6 0.0 0.0 0.00 0.00 0.00 39 1001.4
20260509070202 54 6 0.0 0.0 0.00 0.00 0.00 39 1001.5
20260509065703 54 6 0.0 2.0 0.00 0.00 0.00 38 1001.4
20260509065202 53 6 0.0 2.0 0.00 0.00 0.00 38 1001.4
20260509064702 53 6 0.0 2.0 0.00 0.00 0.00 38 1001.5
20260509064202 53 6 0.0 2.0 0.00 0.00 0.00 38 1001.6
20260509063702 53 6 0.0 2.0 0.00 0.00 0.00 39 1001.5
20260509063202 53 6 0.0 2.0 0.00 0.00 0.00 39 1001.6
20260509062702 53 6 0.0 2.0 0.00 0.00 0.00 39 1001.6
20260509062203 53 6 0.0 2.0 0.00 0.00 0.00 38 1001.7
20260509061203 53 6 0.0 3.0 0.00 0.00 0.00 38 1001.6
20260509060702 53 6 0.0 3.0 0.00 0.00 0.00 38 1001.6
20260509060202 53 6 0.0 0.0 0.00 0.00 0.00 39 1001.6
20260509055702 53 6 0.0 0.0 0.00 0.00 0.00 38 1001.7
20260509055202 54 6 0.0 2.0 0.00 0.00 0.00 39 1001.7
20260509054702 54 6 0.0 2.0 0.00 0.00 0.00 37 1001.7
20260509054202 54 6 0.0 1.0 0.00 0.00 0.00 38 1001.9
20260509053702 54 6 0.0 0.0 0.00 0.00 0.00 36 1001.9
20260509053203 54 6 0.0 0.0 0.00 0.00 0.00 38 1002.2
20260509052703 54 6 0.0 0.0 0.00 0.00 0.00 36 1002.2
20260509051703 54 6 0.0 0.0 0.00 0.00 0.00 37 1002.2
20260509051202 54 6 0.0 0.0 0.00 0.00 0.00 35 1002.2
20260509050702 55 6 0.0 0.0 0.00 0.00 0.00 34 1002.2
20260509050202 55 6 0.0 0.0 0.00 0.00 0.00 34 1002.3
20260509045703 55 6 0.0 0.0 0.00 0.00 0.00 32 1002.5
20260509045202 55 6 0.0 0.0 0.00 0.00 0.00 32 1002.5
20260509044703 56 6 0.0 0.0 0.00 0.00 0.00 32 1002.6
20260509044202 56 6 0.0 0.0 0.00 0.00 0.00 32 1002.6
20260509043703 56 6 0.0 0.0 0.00 0.00 0.00 32 1002.7
20260509043203 56 6 0.0 0.0 0.00 0.00 0.00 31 1002.7
20260509042703 56 6 0.0 0.0 0.00 0.00 0.00 31 1002.7
20260509042202 57 6 0.0 1.0 0.00 0.00 0.00 30 1002.7
20260509041702 57 6 0.0 1.0 0.00 0.00 0.00 30 1002.8
20260509041202 57 6 0.0 2.0 0.00 0.00 0.00 30 1002.8
20260509040703 57 6 0.0 2.0 0.00 0.00 0.00 29 1002.9
20260509040203 58 6 0.0 6.0 0.00 0.00 0.00 29 1002.8
20260509035703 58 6 0.0 6.0 0.00 0.00 0.00 29 1002.8
20260509034703 59 4 0.0 5.0 0.00 0.00 0.00 28 1002.8
20260509034203 59 28 0.0 5.0 0.00 0.00 0.00 28 1002.8
20260509033702 59 30 1.0 7.0 0.00 0.00 0.00 28 1002.8
20260509033204 59 22 2.0 8.0 0.00 0.00 0.00 28 1002.8
20260509031202 60 4 2.0 9.0 0.00 0.00 0.00 28 1002.5
20260509030202 61 23 1.0 13.0 0.00 0.00 0.00 28 1002.6
20260509025703 61 33 3.0 14.0 0.00 0.00 0.00 27 1002.6
20260509025202 61 3 2.0 15.0 0.00 0.00 0.00 27 1002.5
20260509024703 61 1 3.0 15.0 0.00 0.00 0.00 27 1002.5
20260509024202 62 357 2.0 12.0 0.00 0.00 0.00 27 1002.3
20260509023703 62 26 4.0 12.0 0.00 0.00 0.00 27 1002.3
20260509023203 62 16 3.0 10.0 0.00 0.00 0.00 27 1002.3
20260509022702 62 5 2.0 17.0 0.00 0.00 0.00 27 1002.2
20260509022202 62 20 5.0 17.0 0.00 0.00 0.00 27 1002.1
20260509021703 63 339 3.0 12.0 0.00 0.00 0.00 26 1001.9
20260509021202 63 3 3.0 13.0 0.00 0.00 0.00 25 1001.8
20260509020702 63 16 2.0 13.0 0.00 0.00 0.00 26 1001.8
20260509020203 63 3 3.0 17.0 0.00 0.00 0.00 26 1001.7
20260509015703 63 20 2.0 17.0 0.00 0.00 0.00 25 1001.7
20260509015203 63 353 5.0 17.0 0.00 0.00 0.00 25 1001.5
20260509014202 64 11 1.0 14.0 0.00 0.00 0.00 25 1001.4
20260509013703 64 11 2.0 14.0 0.00 0.00 0.00 24 1001.3
20260509012702 64 1 1.0 12.0 0.00 0.00 0.00 23 1001.2
20260509012202 65 6 3.0 12.0 0.00 0.00 0.00 22 1001.2
20260509011703 65 22 2.0 13.0 0.00 0.00 0.00 22 1001.2
20260509011202 65 6 3.0 13.0 0.00 0.00 0.00 22 1001.1
20260509010702 66 332 2.0 13.0 0.00 0.00 0.00 21 1001.1
20260509010202 66 334 4.0 12.0 0.00 0.00 0.00 20 1001.0
20260509005703 66 348 3.0 12.0 0.00 0.00 0.00 20 1001.0
20260509005203 66 48 4.0 12.0 0.00 0.00 0.00 20 1000.9
20260509004203 67 5 2.0 10.0 0.00 0.00 0.00 20 1001.0
20260509003702 67 1 2.0 12.0 0.00 0.00 0.00 19 1000.9
20260509001703 67 357 6.0 20.0 0.00 0.00 0.00 19 1000.8
20260509000204 68 8 2.0 16.0 0.00 0.00 0.00 21 1000.8
20260508235202 68 0 4.0 17.0 0.00 0.00 0.00 20 1000.8
20260508234703 68 7 2.0 13.0 0.00 0.00 0.00 20 1000.8
20260508234202 68 5 2.0 13.0 0.00 0.00 0.00 21 1000.8
20260508233703 68 7 2.0 13.0 0.00 0.00 0.00 19 1000.9
20260508233203 68 349 4.0 13.0 0.00 0.00 0.00 22 1000.9
20260508232704 68 357 3.0 12.0 0.00 0.00 0.00 21 1000.9
20260508232203 68 31 1.0 15.0 0.00 0.00 0.00 23 1000.8
20260508231703 68 287 1.0 15.0 0.00 0.00 0.00 22 1000.9
20260508231203 68 356 2.0 15.0 0.00 0.00 0.00 21 1001.0
20260508230704 69 19 1.0 12.0 0.00 0.00 0.00 21 1001.0
20260508225703 69 339 3.0 9.0 0.00 0.00 0.00 21 1001.0
20260508225203 69 11 2.0 14.0 0.00 0.00 0.00 20 1001.0
20260508224704 69 314 2.0 14.0 0.00 0.00 0.00 21 1001.0
20260508224203 69 354 3.0 14.0 0.00 0.00 0.00 19 1000.9
20260508223202 70 10 1.0 10.0 0.00 0.00 0.00 21 1000.9
20260508222203 70 357 3.0 12.0 0.00 0.00 0.00 20 1001.0
20260508221703 70 27 0.0 7.0 0.00 0.00 0.00 21 1001.0
20260508221203 70 312 1.0 10.0 0.00 0.00 0.00 20 1001.1
20260508220703 70 357 0.0 12.0 0.00 0.00 0.00 21 1001.1
20260508220202 70 359 5.0 12.0 0.00 0.00 0.00 19 1001.0
20260508215703 70 338 1.0 8.0 0.00 0.00 0.00 22 1001.2
20260508214703 70 18 1.0 12.0 0.00 0.00 0.00 20 1001.3
20260508214204 70 341 3.0 12.0 0.00 0.00 0.00 20 1001.3
20260508213702 70 25 5.0 12.0 0.00 0.00 0.00 19 1001.4
20260508213203 70 0 1.0 12.0 0.00 0.00 0.00 19 1001.4
20260508212702 70 323 0.0 8.0 0.00 0.00 0.00 22 1001.4
20260508212202 70 57 1.0 7.0 0.00 0.00 0.00 20 1001.4
20260508211702 71 0 1.0 8.0 0.00 0.00 0.00 20 1001.4
20260508210703 69 7 1.0 7.0 0.00 0.00 0.00 19 1001.6
20260508210203 70 0 1.0 10.0 0.00 0.00 0.00 19 1001.7
20260508205703 71 15 3.0 10.0 0.00 0.00 0.00 18 1001.8
20260508205202 71 39 1.0 13.0 0.00 0.00 0.00 19 1001.9
20260508204202 72 355 3.0 13.0 0.00 0.00 0.00 19 1002.0
20260508203703 71 14 1.0 13.0 0.00 0.00 0.00 19 1002.1
20260508203203 70 356 2.0 13.0 0.00 0.00 0.00 20 1002.2
20260508202703 70 340 5.0 12.0 0.00 0.00 0.00 18 1002.3
20260508202203 69 327 0.0 9.0 0.00 0.00 0.00 24 1002.3
20260508201703 68 270 1.0 8.0 0.00 0.00 0.00 22 1002.4
20260508201203 69 19 3.0 10.0 0.00 0.00 0.00 18 1002.5
20260508200703 69 342 2.0 10.0 0.00 0.00 0.00 20 1002.8
20260508200203 69 354 2.0 9.0 0.00 0.00 0.00 20 1002.7
20260508195703 69 0 2.0 9.0 0.00 0.00 0.00 19 1002.7
20260508195203 70 355 2.0 12.0 0.00 0.00 0.00 18 1002.9
20260508194703 70 353 2.0 17.0 0.00 0.00 0.00 19 1002.9
20260508194203 69 309 2.0 17.0 0.00 0.00 0.00 19 1003.0
20260508193703 69 10 5.0 17.0 0.00 0.00 0.00 18 1003.1
20260508193204 70 345 3.0 16.0 0.00 0.00 0.00 18 1003.2
20260508192702 70 22 4.0 16.0 0.00 0.00 0.00 18 1003.2
20260508192202 70 10 3.0 12.0 0.00 0.00 0.00 17 1003.2
20260508191203 69 36 1.0 9.0 0.00 0.00 0.00 19 1003.4
20260508190703 69 301 3.0 14.0 0.00 0.00 0.00 18 1003.6
20260508185703 68 4 1.0 14.0 0.00 0.00 0.00 19 1003.6
20260508184703 68 46 1.0 17.0 0.00 0.00 0.00 19 1003.6
20260508183703 68 9 1.0 10.0 0.00 0.00 0.00 19 1003.7
20260508182703 69 352 3.0 12.0 0.00 0.00 0.00 20 1003.9
20260508182203 69 328 1.0 15.0 0.00 0.00 0.00 21 1003.9
20260508181703 68 338 2.0 15.0 0.00 0.00 0.00 18 1004.0
20260508181203 68 7 4.0 14.0 0.00 0.00 0.00 18 1004.0
20260508180703 68 12 2.0 14.0 0.00 0.00 0.00 20 1004.2
20260508180203 67 331 4.0 14.0 0.00 0.00 0.00 20 1004.3
20260508175703 67 17 5.0 14.0 0.00 0.00 0.00 18 1004.4
20260508175203 67 9 2.0 14.0 0.00 0.00 0.00 21 1004.4
20260508173703 67 336 1.0 10.0 0.00 0.00 0.00 20 1004.6
20260508173203 66 23 3.0 12.0 0.00 0.00 0.00 19 1004.8
20260508171203 65 353 2.0 15.0 0.00 0.00 0.00 22 1005.1
20260508170204 64 12 2.0 15.0 0.00 0.00 0.00 24 1005.3
20260508165704 64 329 3.0 9.0 0.00 0.00 0.00 22 1005.3
20260508164703 64 357 2.0 8.0 0.00 0.00 0.00 25 1005.4
20260508164202 63 12 0.0 9.0 0.00 0.00 0.00 27 1005.4
20260508163203 63 314 3.0 9.0 0.00 0.00 0.00 27 1005.6
20260508162703 62 300 1.0 8.0 0.00 0.00 0.00 29 1005.7
20260508162204 62 355 1.0 10.0 0.00 0.00 0.00 28 1005.7
20260508161703 61 341 0.0 12.0 0.00 0.00 0.00 28 1005.8
20260508160703 60 275 1.0 8.0 0.00 0.00 0.00 31 1005.9
20260508160203 60 315 2.0 12.0 0.00 0.00 0.00 29 1006.1
20260508155703 60 9 1.0 12.0 0.00 0.00 0.00 30 1006.2
20260508155203 60 322 0.0 9.0 0.00 0.00 0.00 31 1006.2
20260508154703 60 315 2.0 9.0 0.00 0.00 0.00 31 1006.2
20260508154204 60 306 2.0 10.0 0.00 0.00 0.00 33 1006.2
20260508153703 59 338 2.0 10.0 0.00 0.00 0.00 32 1006.2
20260508153203 59 305 1.0 9.0 0.00 0.00 0.00 32 1006.2
20260508152703 58 303 2.0 9.0 0.00 0.00 0.00 35 1006.3
20260508152204 58 350 2.0 8.0 0.00 0.00 0.00 33 1006.3
20260508150703 57 279 0.0 5.0 0.00 0.00 0.00 35 1006.5
20260508150203 57 284 0.0 5.0 0.00 0.00 0.00 33 1006.5
20260508145703 57 273 1.0 7.0 0.00 0.00 0.00 34 1006.5
20260508145204 56 358 1.0 7.0 0.00 0.00 0.00 34 1006.6
20260508144203 55 348 1.0 7.0 0.00 0.00 0.00 37 1006.6